Regional Weather Roundup
Issued by NWS

Home | Current Version | Previous Version | Text Only | Print | Product List | Glossary Off
Versions: 1 2 3 4 5 6 7 8 9 10 11 12 13 14 15 16 17 18 19 20 21 22 23 24 25 26 27 28 29 30 31 32 33 34 35 36 37 38 39 40 41 42 43 44 45 46 47 48 49 50

000
ASUS43 KBIS 041102
RWRND

NORTH DAKOTA REGIONAL WEATHER ROUNDUP
NATIONAL WEATHER SERVICE BISMARCK ND
600 AM CDT SAT JUL 04 2015

NOTE: "FAIR" INDICATES FEW OR NO CLOUDS BELOW 12,000 FEET WITH NO
SIGNIFICANT WEATHER AND/OR OBSTRUCTIONS TO VISIBILITY.


NDZ001>003-009>011-017-041200-
NORTHWEST NORTH DAKOTA

CITY           SKY/WX    TMP DP  RH WIND       PRES   REMARKS
WILLISTON      CLEAR     62  58  86 CALM      29.78F FOG
MINOT          CLEAR     66  61  84 CALM      29.79F HAZE
$$

NDZ018>021-031>035-040>046-041200-
SOUTHWEST NORTH DAKOTA

CITY           SKY/WX    TMP DP  RH WIND       PRES   REMARKS
BISMARCK       PTCLDY    63  62  97 SE6       29.86S FOG
DICKINSON      CLEAR     63  59  87 S10       29.83S FOG
GARRISON         N/A     65  63  93 SE5       29.83S
HETTINGER ARPT PTCLDY    63  58  83 E6        29.86F HAZE
$$

NDZ004>008-012>016-024-026-027-054-041200-
NORTHEAST NORTH DAKOTA

CITY           SKY/WX    TMP DP  RH WIND       PRES   REMARKS
GRAND FORKS    CLOUDY    61  58  90 S3        29.87S FOG
GRND FRKS AFB  CLEAR     60  58  92 S6        29.87F FOG
DEVILS LAKE    CLEAR     66  61  82 S8        29.84F
$$

NDZ022-023-025-028>030-036>039-047>053-041200-
SOUTHEAST NORTH DAKOTA

CITY           SKY/WX    TMP DP  RH WIND       PRES   REMARKS
FARGO          CLEAR     65  60  84 SE7       29.89S HAZE
JAMESTOWN      CLOUDY    66  63  90 S8        29.88F FOG
$$



USA.gov is the U.S. government's official web portal to all federal, state and local government web resources and services.